Regional Weather Roundup
Issued by NWS

Home | Current Version | Previous Version | Graphics & Text | Print | Product List | Glossary On
Versions: 1 2 3 4 5 6 7 8 9 10 11 12 13 14 15 16 17 18 19 20 21 22 23 24 25 26 27 28 29 30 31 32 33 34 35 36 37 38 39 40 41 42 43 44 45 46 47 48 49 50
000
ASUS45 KABQ 190901
RWRNM
WEATHER ROUNDUP FOR NEW MEXICO
NATIONAL WEATHER SERVICE ALBUQUERQUE NM
300 AM MDT SUN APR 19 2015

NOTE: "FAIR" MEANS FEW OR NO CLOUDS BELOW 12,000 FEET AGL WITH NO
       SIGNIFICANT WEATHER OR OBSTRUCTIONS TO VISION.

      THIS PRODUCT IS RELEASED AS TWO VERSIONS.  ONE VERSION NEAR
      THE TOP OF THE HOUR CONTAINING PRELIMINARY DATA FROM ALBUQUERQUE
      AND OTHER STATIONS.  A FINAL VERSION WITH ADDITIONAL DATA IS
      ISSUED ABOUT 10 MINUTES AFTER THE HOUR.

NMZ501-503-504-510>518-191000-
NORTHWEST PLATEAU/NORTHCENTRAL MOUNTAINS

CITY           SKY/WX    TMP DP  RH WIND       PRES   REMARKS
FARMINGTON     CLEAR     40  35  83 W8        29.99S WCI  34
SANTA FE       PTCLDY    37  28  70 N10       29.97S WCI  30
ANGEL FIRE     FAIR      25  22  87 CALM      30.02S

$$
NMZ402-403-502-505>509-191000-
WESTCENTRAL MOUNTAINS/SOUTHWEST MOUNTAINS

CITY           SKY/WX    TMP DP  RH WIND       PRES   REMARKS
GALLUP         PTCLDY    36  27  69 CALM      30.07S
GRANTS         CLEAR     39  29  67 NW7       30.06S WCI  34
SILVER CITY      N/A     39  18  41 N8        30.05S WCI  34

$$
NMZ407-409-411-412-191000-
SOUTHERN DESERTS

CITY           SKY/WX    TMP DP  RH WIND       PRES   REMARKS
DEMING         CLEAR     50  18  28 W10       29.99F
HOLLOMAN AFB   CLEAR     44  26  49 W5        29.93R
ALAMOGORDO     CLEAR     50  28  43 NE7       29.94S
T OR C         CLEAR     51  25  36 W8        29.97S

$$
NMZ519>523-191000-
CENTRAL VALLEYS/CENTRAL HIGHLANDS

CITY           SKY/WX    TMP DP  RH WIND       PRES   REMARKS
ALBUQUERQUE    PTCLDY    50  31  48 N9        30.00R
DOUBLE EAGLE   CLEAR     39  27  61 E8        30.02R WCI  33
CLINES CORNERS CLEAR     35  25  66 NW9       29.96R WCI  28
BELEN          FAIR      44  21  40 NW9       29.99R
SOCORRO        NOT AVBL

$$
NMZ524>526-539-540-191000-
SOUTHCENTRAL MOUNTAINS

CITY           SKY/WX    TMP DP  RH WIND       PRES   REMARKS
RUIDOSO        NOT AVBL

$$
NMZ527>531-191000-
NORTHEAST HIGHLANDS/NORTHEAST PLAINS

CITY           SKY/WX    TMP DP  RH WIND       PRES   REMARKS
LAS VEGAS      CLEAR     38  25  59 NW12      29.97R WCI  30
RATON          CLEAR     35  29  78 N12       29.96S WCI  27
CLAYTON        CLEAR     41  33  73 NW12G18   29.90F

$$
NMZ532>537-191000-
EASTCENTRAL PLAINS

CITY           SKY/WX    TMP DP  RH WIND       PRES   REMARKS
TUCUMCARI      PTCLDY    45  28  51 N10       29.89R
CANNON AFB     NOT AVBL
CLOVIS AIRPORT CLEAR     45  28  53 N12       29.88R

$$
NMZ028-029-538-191000-
SOUTHEAST PLAINS

CITY           SKY/WX    TMP DP  RH WIND       PRES   REMARKS
ROSWELL        CLEAR     52  32  46 W12       29.87F
ARTESIA        CLEAR     52  32  46 W13       29.89S
CARLSBAD       CLEAR     51  33  50 W12       29.86S
HOBBS          CLEAR     54  32  43 NW14      29.86S


$$


USA.gov is the U.S. government's official web portal to all federal, state and local government web resources and services.